This is the latest recevied weather packets stored in our database for station/object W1GK. If no packets are shown the sender has not sent any weather packets the latest 10 day(s).
| Time | Temp. | Humidity | Pressure | Rain* | Wind** | Luminosity | Snow |
|---|---|---|---|---|---|---|---|
| 1777429198 | 22.78° C | 17% | 1014.3 hPa | 0 mm | - | 7 W/m² | - |
| 1777428600 | 22.78° C | 16% | 1014.1 hPa | 0 mm | - | 12 W/m² | - |
| 1777428000 | 22.78° C | 16% | 1014 hPa | 0 mm | - | 16 W/m² | - |
| 1777427401 | 22.78° C | 15% | 1014.1 hPa | 0 mm | - | 21 W/m² | - |
| 1777426800 | 23.33° C | 15% | 1014.3 hPa | 0 mm | - | 25 W/m² | - |
| 1777426200 | 23.89° C | 14% | 1014.2 hPa | 0 mm | - | 130 W/m² | - |
| 1777425600 | 23.89° C | 14% | 1014.3 hPa | 0 mm | - | 162 W/m² | - |
| 1777425001 | 23.89° C | 15% | 1014.1 hPa | 0 mm | - | 192 W/m² | - |
| 1777424402 | 23.89° C | 15% | 1014.3 hPa | 0 mm | - | 221 W/m² | - |
| 1777423799 | 23.89° C | 15% | 1014.3 hPa | 0 mm | - | 253 W/m² | - |
| 1777423199 | 25° C | 14% | 1014.4 hPa | 0 mm | - | 287 W/m² | - |
| 1777422599 | 24.44° C | 14% | 1014.4 hPa | 0 mm | - | 316 W/m² | - |
| 1777421998 | 24.44° C | 14% | 1014.4 hPa | 0 mm | - | 350 W/m² | - |
| 1777421398 | 24.44° C | 14% | 1014.4 hPa | 0 mm | - | 385 W/m² | - |
| 1777420799 | 25° C | 14% | 1014.4 hPa | 0 mm | - | 417 W/m² | - |
| 1777420199 | 25° C | 14% | 1014.7 hPa | 0 mm | - | 446 W/m² | - |
| 1777419600 | 25° C | 14% | 1014.7 hPa | 0 mm | - | 478 W/m² | - |
| 1777418999 | 25° C | 13% | 1014.8 hPa | 0 mm | - | 510 W/m² | - |
| 1777418400 | 25.56° C | 13% | 1014.7 hPa | 0 mm | - | 538 W/m² | - |
| 1777417798 | 25° C | 13% | 1014.9 hPa | 0 mm | - | 570 W/m² | - |
| 1777417199 | 25° C | 13% | 1015 hPa | 0 mm | - | 598 W/m² | - |
| 1777416598 | 25.56° C | 13% | 1015.2 hPa | 0 mm | - | 631 W/m² | - |
| 1777415998 | 26.11° C | 12% | 1015.4 hPa | 0 mm | - | 656 W/m² | - |
| 1777415398 | 25.56° C | 13% | 1015.4 hPa | 0 mm | - | 680 W/m² | - |
| 1777414797 | 25.56° C | 13% | 1015.7 hPa | 0 mm | - | 707 W/m² | - |
* Rain latest hour (hover to see other rain measurements)
** Current wind speed in m/s (hover to see current wind gust speed)